Powrót do katalogu

CBERS 1 DEB

AktywnySSO
NORAD 30783·DEBRIS·🇧🇷 Brazil🇨🇳 China

Wystrzelony Oct 14, 1999 z Taiyuan Satellite Launch Center

Loading…

Następne Przeloty (najbliższe 24 godziny)

TLE

ŚwieżeSource: Space-Track

Epoka: Sep 14, 2026, 03:38 UTC

1 30783U 99057NS  26257.15148396  .00003205  00000-0  77325-3 0  9997
2 30783  98.2893  31.3023 0034909 290.1608 245.4963 14.53500937 23875

Śledź CBERS 1 DEB w czasie rzeczywistym z AllMySat

Download on the App Store